McMinnville, OR

8:03 AM PDT on May 25, 2017 (GMT -0700)
McMinnville Municipal

Weather History for KMMV - February, 2014

Change the Weather History Date:

Monday, February 3, 2014

  Actual Average Record
Temperature  
Mean Temperature 41 °F 42 °F  
Max Temperature 49 °F 49 °F 62 °F (1963)
Min Temperature 32 °F 35 °F 3 °F (1950)
Degree Days  
Heating Degree Days 24 23  
Month to date heating degree days 72 69  
Since 1 July heating degree days 2843 2824  
Cooling Degree Days 0 0  
Month to date cooling degree days 0 0  
Year to date cooling degree days 0 0  
Moisture  
Dew Point 35 °F    
Average Humidity 78    
Maximum Humidity 100    
Minimum Humidity 56    
Precipitation  
Precipitation 0.06 in 0.22 in 0.89 in (1938)
Month to date precipitation 0.06 0.62  
Year to date precipitation 2.75 6.72  
Sea Level Pressure  
Sea Level Pressure 30.09 in    
Wind  
Wind Speed 3 mph (NNW)    
Max Wind Speed 10 mph    
Max Gust Speed 14 mph    
Visibility 10 miles    
Events Rain    
T = Trace of Precipitation, MM = Missing Value Source: NWS Daily Summary

Daily Weather History Graph

Daily Weather History Graph

Search for Another Location

Airport or City:

Trip Planner

Search our weather history database for the weather conditions in past years. The results will help you decide how hot, cold, wet, or windy it might be!

Date:

Astronomy

Feb. 03, 2014 Rise Set
Actual Time 7:30 AM PST 5:23 PM PST
Civil Twilight 6:59 AM PST 5:54 PM PST
Nautical Twilight 6:23 AM PST 6:29 PM PST
Astronomical Twilight 5:49 AM PST 7:03 PM PST
Moon 9:21 AM PST (2/3) 10:35 PM PST (2/3)
Length of Visible Light 10h 55m
Length of Day
9h 52m
Waxing Crescent, 20% of the Moon is Illuminated
Feb 3
Waxing Crescent
Feb 6
First Quarter
Feb 14
Full
Feb 22
Last Quarter
Mar 1
New

Hourly Weather History & Observations

Time (PST) Temp. Windchill Dew Point Humidity Pressure Visibility Wind Dir Wind Speed Gust Speed Precip Events Conditions
12:53 AM 37.0 °F - 34.0 °F 89% 30.02 in 10.0 mi Calm Calm - N/A   Overcast
1:31 AM 35.1 °F - 34.0 °F 96% 30.02 in 10.0 mi Calm Calm - N/A   Mostly Cloudy
1:53 AM 33.1 °F 28.7 °F 30.9 °F 92% 30.03 in 10.0 mi West 4.6 mph - N/A   Overcast
2:15 AM 33.1 °F - 32.0 °F 96% 30.03 in 10.0 mi Calm Calm - N/A   Mostly Cloudy
2:53 AM 34.0 °F - 34.0 °F 100% 30.04 in 10.0 mi Calm Calm - N/A   Overcast
3:53 AM 34.0 °F 31.0 °F 32.0 °F 92% 30.04 in 10.0 mi NNE 3.5 mph - N/A   Overcast
4:53 AM 34.0 °F - 34.0 °F 100% 30.05 in 10.0 mi Calm Calm - N/A   Overcast
5:53 AM 34.0 °F - 32.0 °F 92% 30.05 in 10.0 mi Calm Calm - N/A   Mostly Cloudy
6:53 AM 34.0 °F - 33.1 °F 96% 30.05 in 10.0 mi Calm Calm - N/A   Overcast
7:53 AM 34.0 °F - 33.1 °F 96% 30.08 in 10.0 mi Calm Calm - N/A   Overcast
8:53 AM 35.1 °F - 34.0 °F 96% 30.09 in 10.0 mi Calm Calm - N/A   Overcast
9:53 AM 37.0 °F 33.3 °F 36.0 °F 96% 30.10 in 10.0 mi West 4.6 mph - N/A   Mostly Cloudy
10:53 AM 42.1 °F 38.4 °F 36.0 °F 79% 30.11 in 10.0 mi WSW 5.8 mph - N/A   Clear
11:53 AM 46.0 °F - 33.1 °F 61% 30.10 in 10.0 mi Calm Calm - N/A   Clear
12:53 PM 48.0 °F - 34.0 °F 58% 30.08 in 10.0 mi NNE 6.9 mph - N/A   Mostly Cloudy
1:53 PM 46.9 °F - 36.0 °F 66% 30.06 in 10.0 mi East 6.9 mph - N/A   Overcast
2:53 PM 44.1 °F 41.5 °F 36.0 °F 73% 30.07 in 10.0 mi ENE 4.6 mph - 0.01 in Rain Light Rain
3:23 PM 41.0 °F 39.0 °F 35.1 °F 79% 30.09 in 10.0 mi North 3.5 mph - 0.05 in Rain Light Rain
3:53 PM 39.9 °F 35.1 °F 36.0 °F 86% 30.11 in 10.0 mi WNW 6.9 mph - 0.05 in Rain Light Rain
4:53 PM 39.0 °F 34.0 °F 36.0 °F 89% 30.11 in 10.0 mi East 6.9 mph - 0.00 in   Overcast
5:13 PM 37.9 °F 34.4 °F 36.0 °F 93% 30.11 in 10.0 mi NE 4.6 mph - N/A   Overcast
5:27 PM 37.9 °F - 37.0 °F 97% 30.11 in 10.0 mi Calm Calm - N/A   Overcast
5:41 PM 37.9 °F - 36.0 °F 93% 30.11 in 10.0 mi Calm Calm - N/A   Overcast
5:53 PM 37.9 °F - 36.0 °F 93% 30.12 in 10.0 mi Calm Calm - N/A   Overcast
6:53 PM 37.9 °F - 36.0 °F 93% 30.12 in 10.0 mi Calm Calm - 0.00 in Rain Light Rain
7:53 PM 37.9 °F - 36.0 °F 93% 30.13 in 10.0 mi Calm Calm - 0.00 in   Overcast
8:53 PM 36.0 °F - 36.0 °F 100% 30.14 in 9.0 mi Calm Calm - N/A   Overcast
9:14 PM 37.0 °F - 37.0 °F 100% 30.14 in 10.0 mi Calm Calm - N/A   Overcast
9:53 PM 36.0 °F 32.1 °F 35.1 °F 97% 30.14 in 6.0 mi NNW 4.6 mph - N/A   Overcast
10:53 PM 35.1 °F 32.2 °F 35.1 °F 100% 30.15 in 9.0 mi NNW 3.5 mph - N/A   Overcast
11:34 PM 35.1 °F 32.2 °F 35.1 °F 100% 30.16 in 10.0 mi NW 3.5 mph - N/A   Overcast
11:42 PM 34.0 °F 31.0 °F 34.0 °F 100% 30.16 in 10.0 mi NW 3.5 mph - N/A   Overcast
11:53 PM 35.1 °F 31.0 °F 35.1 °F 100% 30.17 in 9.0 mi NNW 4.6 mph - N/A   Mostly Cloudy